This is the latest recevied weather packets stored in our database for station/object SP2MHC-2. If no packets are shown the sender has not sent any weather packets the latest 10 day(s).
| Time | Temp. | Humidity | Pressure | Rain* | Wind** | Luminosity | Snow |
|---|---|---|---|---|---|---|---|
| 1777659016 | 16.11° C | 42% | 1021.4 hPa | - | - | - | - |
| 1777658978 | 16.11° C | 42% | 1021.4 hPa | - | - | - | - |
| 1777658976 | 16.11° C | 42% | 1021.4 hPa | - | - | - | - |
| 1777658079 | 17.22° C | 40% | 1021.3 hPa | - | - | - | - |
| 1777658076 | 17.22° C | 40% | 1021.3 hPa | - | - | - | - |
| 1777657210 | 18.33° C | 38% | 1021.3 hPa | - | - | - | - |
| 1777657178 | 18.33° C | 38% | 1021.3 hPa | - | - | - | - |
| 1777657176 | 18.33° C | 38% | 1021.3 hPa | - | - | - | - |
| 1777656279 | 18.89° C | 37% | 1021.2 hPa | - | - | - | - |
| 1777656276 | 18.89° C | 37% | 1021.2 hPa | - | - | - | - |
| 1777655410 | 19.44° C | 35% | 1021.2 hPa | - | - | - | - |
| 1777655379 | 19.44° C | 35% | 1021.2 hPa | - | - | - | - |
| 1777655376 | 19.44° C | 35% | 1021.2 hPa | - | - | - | - |
| 1777654478 | 20° C | 34% | 1021.3 hPa | - | - | - | - |
| 1777654476 | 20° C | 34% | 1021.3 hPa | - | - | - | - |
| 1777653578 | 20.56° C | 33% | 1021.2 hPa | - | - | - | - |
| 1777653575 | 20.56° C | 33% | 1021.2 hPa | - | - | - | - |
| 1777652678 | 20.56° C | 33% | 1021.3 hPa | - | - | - | - |
| 1777652675 | 20.56° C | 33% | 1021.3 hPa | - | - | - | - |
| 1777651815 | 20.56° C | 33% | 1021.5 hPa | - | - | - | - |
| 1777651778 | 20.56° C | 33% | 1021.5 hPa | - | - | - | - |
| 1777651775 | 20.56° C | 33% | 1021.5 hPa | - | - | - | - |
| 1777650879 | 20.56° C | 33% | 1021.5 hPa | - | - | - | - |
| 1777650875 | 20.56° C | 33% | 1021.5 hPa | - | - | - | - |
| 1777649978 | 20° C | 34% | 1021.6 hPa | - | - | - | - |
* Rain since midnight (hover to see other rain measurements)
** Current wind speed in m/s (hover to see current wind gust speed)